This is the latest recevied weather packets stored in our database for station/object KO4LCK. If no packets are shown the sender has not sent any weather packets the latest 10 day(s).
| Time | Temp. | Humidity | Pressure | Rain* | Wind** | Luminosity | Snow |
|---|---|---|---|---|---|---|---|
| 1777559579 | 16.67° C | 73% | 1014.3 hPa | 0 mm | - | 404 W/m² | - |
| 1777559277 | 16.67° C | 73% | 1014.3 hPa | 0 mm | - | 317 W/m² | - |
| 1777558972 | 16.67° C | 78% | 1014.2 hPa | 0 mm | - | 389 W/m² | - |
| 1777558668 | 16.67° C | 78% | 1014 hPa | 0 mm | - | 387 W/m² | - |
| 1777558364 | 16.67° C | 79% | 1014.2 hPa | 0 mm | - | 317 W/m² | - |
| 1777558061 | 16.11° C | 78% | 1014 hPa | 0 mm | - | 335 W/m² | - |
| 1777557757 | 16.11° C | 79% | 1014.3 hPa | 0 mm | - | 272 W/m² | - |
| 1777557454 | 16.11° C | 80% | 1014 hPa | 0 mm | - | 275 W/m² | - |
| 1777557150 | 15.56° C | 81% | 1014.2 hPa | 0 mm | - | 215 W/m² | - |
| 1777556846 | 15.56° C | 83% | 1014.1 hPa | 0 mm | - | 227 W/m² | - |
| 1777556543 | 15.56° C | 83% | 1014 hPa | 0 mm | - | 300 W/m² | - |
| 1777556242 | 15.56° C | 84% | 1014.2 hPa | 0 mm | - | 226 W/m² | - |
| 1777555938 | 15.56° C | 82% | 1014 hPa | 0 mm | - | 167 W/m² | - |
| 1777555634 | 15.56° C | 84% | 1014 hPa | 0 mm | - | 294 W/m² | - |
| 1777555331 | 15.56° C | 84% | 1013.9 hPa | 0 mm | - | 326 W/m² | - |
| 1777555027 | 15.56° C | 85% | 1014.1 hPa | 0 mm | - | 143 W/m² | - |
| 1777554724 | 15.56° C | 86% | 1014 hPa | 0 mm | - | 244 W/m² | - |
| 1777554421 | 15.56° C | 84% | 1013.9 hPa | 0 mm | - | 306 W/m² | - |
| 1777554118 | 15.56° C | 87% | 1013.5 hPa | 0 mm | - | 302 W/m² | - |
| 1777553815 | 15.56° C | 88% | 1013.6 hPa | 0 mm | - | 266 W/m² | - |
| 1777553511 | 15.56° C | 89% | 1013.5 hPa | 0 mm | - | 257 W/m² | - |
| 1777553207 | 15° C | 91% | 1013.6 hPa | 0 mm | - | 304 W/m² | - |
| 1777552903 | 15° C | 93% | 1013.5 hPa | 0 mm | - | 330 W/m² | - |
| 1777552598 | 15° C | 95% | 1013.5 hPa | 0 mm | - | 247 W/m² | - |
| 1777552295 | 14.44° C | 96% | 1013.5 hPa | 0 mm | - | 228 W/m² | - |
* Rain latest hour (hover to see other rain measurements)
** Current wind speed in m/s (hover to see current wind gust speed)